Theta_e
347 347 347 349 354 349 353 354 350 353 351 347 352 350 352 351 352 351 351 347 349 351 351 352 353 354 353 352 350 352 353 352 352 353 353 352 352 346 347 349 349 351 351
350 348 345 351 353 350 353 353 350 350 351 351 350 350 351 352 351 348 347 344 344 346 352 353 353 354 353 353 353 352 350 348 349 353 351 351 349 348 347 350 351 352 352
349 349 350 351 352 349 351 353 353 352 352 352 350 347 347 349 347 346 351 351 351 346 348 353 354 354 354 353 352 344 345 343 346 345 347 350 351 351 348 346 350 352 351
348 348 350 349 352 351 353 353 353 351 348 350 350 350 348 349 346 345 346 348 353 348 347 348 351 354 351 353 353 341 343 344 346 347 346 347 350 352 352 347 350 349 347
347 348 344 347 353 351 352 349 354 353 350 352 346 348 347 346 344 344 347 347 350 353 349 347 349 353 354 351 351 338 345 344 345 347 348 345 348 351 349 347 346 347 351
353 350 343 351 347 351 351 347 353 351 353 351 349 348 349 350 347 340 343 344 345 351 352 346 344 351 353 352 343 334 337 344 350 347 346 345 346 346 351 352 352 349 348
350 349 348 346 349 354 351 348 353 354 350 351 342 341 342 347 348 346 341 343 351 348 351 351 346 345 348 349 342 338 343 346 351 345 347 346 340 346 348 346 349 350 348
347 350 350 349 350 351 352 352 353 352 350 346 340 336 337 341 343 348 344 345 346 353 353 353 352 348 351 351 342 340 345 348 348 346 345 348 339 347 351 349 350 350 350
348 348 349 352 354 354 351 349 352 352 349 348 340 336 337 336 339 342 343 348 345 352 352 351 352 352 348 352 341 338 344 346 348 348 348 342 341 341 351 350 350 350 349
347 347 347 349 350 348 349 353 351 353 350 350 344 341 341 338 337 340 344 344 347 351 350 352 350 350 350 351 343 340 341 345 348 342 349 345 337 339 350 349 348 349 349
347 346 347 346 348 348 350 346 350 352 349 343 339 340 345 344 342 340 346 344 349 348 347 351 351 351 350 348 343 341 340 346 348 346 347 339 330 340 346 347 348 347 344
345 347 347 348 351 351 352 349 348 350 349 344 343 344 345 346 344 343 345 343 346 350 350 351 350 350 347 348 344 342 340 347 347 348 346 344 336 342 351 349 350 348 348
348 349 349 347 348 350 352 351 352 352 351 344 345 346 345 347 348 344 344 343 346 347 348 347 347 348 347 348 347 346 348 348 348 350 346 336 334 340 352 349 348 347 349
346 346 344 346 348 346 348 350 351 350 351 349 350 350 350 352 352 351 345 348 348 346 347 348 347 348 346 346 347 347 346 348 350 348 346 341 337 338 346 350 344 343 349
344 346 344 348 350 347 350 348 350 352 351 349 349 347 352 353 353 352 350 349 347 350 347 349 349 347 348 348 348 348 348 347 347 349 347 347 336 337 344 349 351 345 349
345 345 349 350 350 348 350 352 352 353 352 352 352 352 354 355 352 352 351 351 348 350 349 349 348 346 346 345 347 347 347 347 348 349 348 346 345 336 336 349 350 350 350
346 346 347 350 346 351 351 355 355 353 351 351 355 357 358 354 349 351 352 351 350 351 350 349 347 346 345 344 346 349 349 348 347 347 349 349 345 345 340 337 345 349 350
345 346 345 344 344 352 354 354 352 352 352 351 353 358 357 357 354 350 352 353 351 350 352 351 351 349 348 347 347 347 349 348 349 348 348 350 350 348 348 343 339 344 346
341 345 346 347 348 352 351 353 352 350 353 351 356 357 355 357 357 352 350 352 355 353 355 353 351 351 351 349 349 350 347 349 350 349 349 350 350 348 348 349 346 340 341
343 347 349 348 351 350 353 350 351 351 349 351 354 357 356 357 357 357 355 351 356 355 353 353 352 352 352 350 350 350 347 349 351 349 350 349 350 350 349 350 349 347 342
346 347 347 347 350 351 347 350 350 348 350 350 352 357 358 357 358 356 355 354 355 353 354 352 353 353 352 352 351 351 348 349 348 348 350 349 349 350 351 352 351 350 346
343 347 349 349 349 351 350 350 351 351 353 349 352 355 358 357 358 359 357 356 355 353 356 353 353 354 352 353 350 350 357 350 349 352 351 349 353 351 351 351 349 350 345
344 347 348 347 348 350 350 350 352 351 351 353 353 355 355 360 359 360 359 357 356 357 356 355 355 355 354 353 349 352 356 357 351 348 347 352 354 354 352 352 350 346 350
346 346 348 347 348 350 350 350 351 351 353 353 352 352 356 360 359 359 357 358 357 356 354 354 356 355 353 351 352 350 354 354 358 359 351 349 345 351 357 355 351 347 350
344 345 347 347 348 350 351 351 353 350 352 351 356 358 356 358 360 359 359 358 359 358 357 355 356 354 356 353 353 351 352 353 353 355 358 353 347 349 354 349 355 353 351
343 344 346 346 348 350 355 349 356 349 348 351 353 355 356 359 361 359 359 361 360 359 358 357 356 355 353 354 353 355 354 353 354 353 352 354 354 351 354 350 351 349 348
Wind_Speed
17 14 14 13 11 11 10 12 11 10 8 7 8 7 8 9 8 7 6 6 5 6 6 8 10 12 15 15 16 16 17 18 20 20 21 20 19 19 20 22 20 20 20
20 16 15 13 11 11 9 11 11 10 8 7 7 7 6 6 6 5 5 5 5 6 7 9 11 13 15 16 16 15 16 17 18 20 20 20 17 17 13 17 20 19 19
21 17 15 14 11 11 10 10 10 9 8 8 7 6 6 5 5 6 5 5 5 7 9 11 13 14 14 15 15 15 15 16 17 22 23 17 17 17 20 18 19 18 19
19 18 16 16 12 11 10 10 10 9 9 9 8 8 7 8 10 8 7 7 7 6 9 12 13 15 14 14 13 15 16 17 14 15 15 18 14 15 16 16 17 17 18
25 22 18 16 13 12 10 10 10 9 8 10 10 10 9 9 9 8 8 6 7 6 8 11 14 14 14 13 12 15 14 14 11 5 8 17 14 13 14 14 15 16 15
25 20 20 16 14 12 10 10 10 10 10 11 14 13 12 10 7 8 6 6 6 8 7 9 12 14 13 13 13 13 13 9 8 14 16 19 14 15 13 13 14 15 14
24 21 20 17 14 12 11 11 12 10 9 11 12 12 11 10 8 5 4 5 6 7 9 10 9 11 13 12 12 12 10 8 4 13 20 14 16 16 14 12 13 13 13
26 21 20 17 15 13 12 12 11 11 10 8 9 6 5 8 8 7 5 4 7 7 8 8 10 9 11 11 10 10 8 4 1 15 15 12 16 16 13 13 12 13 13
24 21 19 16 15 14 13 13 12 11 11 8 7 3 6 5 5 7 6 6 8 8 7 8 8 9 10 10 9 9 8 6 4 13 22 16 17 15 14 13 12 12 12
23 21 22 17 15 15 14 13 12 11 10 11 5 6 4 3 7 8 7 6 7 6 8 8 9 9 9 9 8 7 9 6 4 8 18 13 15 14 14 12 12 12 11
13 20 20 23 19 15 16 14 12 11 10 10 6 6 3 3 5 7 6 6 8 6 10 10 10 9 9 9 9 8 9 9 6 6 16 14 13 14 13 11 11 11 10
12 20 17 14 20 20 16 11 12 11 10 6 7 6 3 3 7 11 8 8 9 8 9 10 10 10 10 8 7 9 11 8 10 1 16 15 15 14 13 12 12 11 11
18 29 20 17 9 20 17 12 12 13 9 8 7 10 9 5 6 9 11 10 9 12 10 9 10 11 11 14 9 8 4 11 8 8 14 14 15 15 15 14 13 13 12
23 14 13 15 10 9 9 13 13 8 8 7 5 12 12 12 9 10 11 12 14 14 14 13 12 11 12 14 10 11 9 12 9 13 12 8 12 15 18 16 14 16 15
18 16 14 17 8 6 3 4 9 10 6 7 6 10 16 13 10 11 12 15 18 16 13 15 19 13 9 9 10 9 9 5 10 9 13 7 14 16 18 18 17 16 16
18 17 22 16 11 7 5 1 2 6 10 4 16 13 9 6 5 3 9 14 18 18 20 16 13 14 8 10 12 10 12 9 10 9 10 14 13 16 17 20 19 18 18
16 18 15 15 11 11 7 6 6 5 5 8 5 10 4 1 7 3 4 9 15 18 16 15 11 10 11 13 15 10 10 10 12 12 13 12 19 14 16 19 21 21 21
9 18 14 12 15 15 12 9 6 5 6 3 4 6 5 5 4 7 1 5 10 16 12 12 12 11 12 11 14 14 12 12 13 16 15 14 16 17 16 19 23 23 24
6 5 14 15 16 10 8 6 10 8 6 6 8 5 4 4 5 2 4 6 11 11 13 14 13 12 14 14 14 19 13 15 16 16 16 18 19 17 17 19 21 24 26
28 20 9 8 11 5 7 3 7 6 6 9 10 7 5 4 3 1 3 6 10 12 12 13 13 12 12 16 17 15 15 16 17 18 23 21 22 23 21 20 24 23 25
18 15 11 10 8 5 5 11 10 8 11 5 8 6 2 2 3 0 5 4 6 8 11 13 10 14 15 16 16 12 16 17 19 21 23 23 22 22 23 19 21 25 23
23 19 15 16 14 12 11 10 3 2 11 3 1 2 2 2 2 3 1 4 5 9 9 11 14 14 16 16 9 9 1 6 12 15 19 25 23 23 22 23 21 25 26
23 24 21 18 17 15 12 7 2 4 5 5 6 2 3 4 4 4 2 0 3 4 10 13 14 12 14 13 14 6 1 3 3 7 13 16 23 23 23 25 28 26 25
26 24 23 22 19 15 14 11 11 9 10 7 9 4 3 5 5 7 5 5 5 4 9 11 12 12 10 10 7 14 13 8 2 3 7 15 5 19 23 22 23 25 29
21 20 22 23 19 15 18 14 11 12 11 8 9 5 7 7 8 7 8 4 5 2 7 7 11 12 9 12 11 13 11 11 13 10 6 4 6 16 6 14 20 18 27
25 24 23 24 20 17 15 16 12 13 13 9 7 8 10 12 13 12 10 6 7 8 7 7 8 10 11 11 13 13 11 7 5 7 3 9 11 19 8 12 14 10 13
Wind_Direction
137 137 132 119 105 104 101 102 123 125 117 98 92 89 91 90 93 96 83 67 63 89 102 112 118 111 108 105 104 101 99 102 103 101 98 96 100 104 104 107 109 105 109
130 136 137 127 115 109 106 110 113 120 121 113 103 93 88 89 91 92 91 76 79 97 121 128 126 122 117 112 108 108 110 111 112 109 104 100 96 102 116 114 120 110 112
128 136 133 129 126 113 113 112 116 118 118 114 109 98 93 87 91 95 92 99 96 100 124 132 129 122 120 120 119 120 119 117 117 114 100 98 92 98 111 115 117 115 113
130 135 132 135 129 120 120 119 117 113 110 105 101 100 88 83 92 93 98 98 104 95 107 130 131 127 124 127 126 125 121 117 121 131 107 108 99 103 108 111 109 117 119
129 125 130 129 129 124 120 120 118 115 112 109 101 97 89 86 91 95 93 100 114 106 102 129 135 133 131 129 133 134 134 127 114 157 133 116 115 109 109 111 110 110 115
121 124 124 124 123 122 124 119 118 116 109 106 103 97 92 86 92 108 91 104 117 122 106 110 134 131 132 137 134 137 140 146 151 117 114 120 127 118 109 118 121 125 120
122 125 121 124 124 124 123 124 124 119 126 127 124 111 100 80 90 93 100 127 123 120 127 127 131 136 138 137 137 152 153 143 95 147 123 134 131 130 128 126 120 124 126
126 124 122 126 124 126 131 130 129 129 133 146 148 123 118 106 101 95 112 135 140 130 134 137 139 138 138 137 144 164 165 134 147 145 134 135 142 133 132 134 129 129 125
123 127 130 136 135 131 129 130 134 140 143 149 155 145 90 159 136 115 118 121 149 138 142 143 146 148 155 152 145 168 186 190 202 164 146 151 148 144 141 139 138 135 135
137 139 142 145 146 143 137 142 146 146 148 154 163 159 193 189 166 129 108 140 154 157 153 150 150 152 164 173 181 176 185 207 95 149 153 151 154 154 150 153 155 151 146
147 166 149 156 156 157 155 151 150 159 177 189 209 192 195 197 193 192 182 160 157 171 165 167 168 170 174 186 198 184 194 184 200 176 170 157 154 160 157 161 161 165 165
168 128 157 157 157 156 160 159 160 174 189 234 208 200 184 157 175 175 188 181 170 168 165 177 186 190 188 194 201 201 207 226 268 308 171 163 159 163 165 173 173 174 170
175 161 155 138 175 159 154 165 176 184 212 222 243 240 246 214 180 196 185 189 177 182 180 186 192 195 211 204 203 204 192 238 240 135 165 163 168 176 173 181 186 186 187
150 160 161 158 156 146 136 151 172 185 224 215 292 262 233 242 198 201 198 185 194 192 185 201 200 194 214 219 209 239 224 213 224 187 166 184 194 186 186 189 195 194 196
159 161 172 143 135 161 202 185 132 188 176 246 40 269 234 233 238 214 212 192 195 191 192 204 216 188 205 200 222 207 196 214 210 187 185 201 209 199 195 198 200 199 200
166 164 136 138 151 170 174 44 137 231 232 287 233 214 212 249 276 245 202 199 196 195 199 212 224 189 199 220 216 220 235 209 198 186 206 196 204 206 206 202 205 207 207
158 152 132 133 162 177 185 200 212 243 272 246 215 171 106 131 22 355 226 203 195 195 203 211 215 201 198 226 198 194 221 233 218 220 214 207 211 209 214 212 213 212 213
120 130 147 160 175 178 188 200 222 269 221 304 234 114 119 70 35 38 274 207 183 192 203 196 199 215 222 238 204 211 205 230 232 233 230 215 218 215 221 221 219 218 219
111 246 163 185 184 184 204 200 246 206 227 243 194 115 102 115 118 48 146 170 175 180 188 193 209 209 235 249 256 195 215 218 227 227 228 224 221 226 233 227 223 225 225
166 211 158 166 142 164 183 223 272 217 266 265 197 161 105 112 151 309 156 141 183 193 190 189 201 212 230 244 248 225 216 219 232 230 233 225 227 232 227 233 226 228 227
159 154 179 166 176 193 223 234 221 257 236 203 219 139 94 87 150 63 174 142 158 191 186 186 195 197 227 241 255 236 221 243 229 229 235 233 235 232 221 219 224 224 232
161 157 186 180 188 204 229 255 320 312 41 201 309 194 147 166 177 219 114 184 149 177 193 194 196 201 216 237 214 259 248 294 265 234 236 227 234 219 222 234 234 240 243
160 172 186 191 198 196 235 225 222 278 314 241 219 107 270 194 200 195 209 186 163 188 205 209 216 230 237 235 220 228 279 217 270 263 278 285 261 235 233 233 238 244 242
169 180 189 187 195 207 217 232 190 208 227 260 214 199 184 182 207 220 189 213 236 255 214 211 222 235 238 261 208 230 249 250 233 297 246 225 254 256 225 227 240 231 234
173 179 182 183 192 204 201 206 192 220 242 217 154 176 205 209 204 207 219 214 221 236 214 211 214 235 252 256 260 253 260 257 260 259 289 259 253 258 223 285 252 247 230
182 190 180 179 191 200 197 208 201 213 241 291 190 212 244 214 215 201 201 212 214 229 220 235 250 233 238 241 248 256 254 244 266 260 301 306 291 295 289 205 249 279 315